Retour au catalogue

STARLINK-35559

ActifCommunicationsVLEO
NORAD 66095·PAYLOAD·🇺🇸 United States

Lancé Oct 19, 2025 depuis Vandenberg Space Force Base

Loading…

Prochains Passages (prochaines 24 heures)

TLE

FraisSource: CelesTrak SupGP

Époque: Sep 15, 2026, 03:13 UTC

1 66095C 25236K   26258.13451389  .00028615  00000+0  84503-3 0  2583
2 66095  53.1588 302.9244 0001172  86.2284 268.2717 15.34391211    17

Suivez STARLINK-35559 en temps réel avec AllMySat

Download on the App Store